ilce.edu.mx alexa rank chart, ilce.edu.mx alexa rank daily changes

ilce.edu.mx alexa rank chart, ilce.edu.mx alexa rank daily changes

ilce.edu.mx
Actual rank:
80 549

RANK HISTORY

Date Rank Diff
2017/01/22 80 549 -2 223
2017/01/21 82 772 -2 695
2017/01/20 85 467 -2 156
2017/01/19 87 623 -1 930
2017/01/18 89 553 -688
2017/01/17 90 241 -2 024
2017/01/16 92 265 +2 990
2017/01/15 89 275 -577
2017/01/14 89 852 -550
2017/01/13 90 402 +926
2017/01/12 89 476 +67
2017/01/11 89 409 +806
2017/01/10 88 603 +2 009
2017/01/09 86 594 +1 341
2017/01/08 85 253 +3 232
2017/01/07 82 021 +3 116
2017/01/06 78 905 +316
2017/01/05 78 589 +1 171
2017/01/04 77 418 +2 074
2017/01/03 75 344 +2 099
2017/01/02 73 245 +3 231
2017/01/01 70 014 +950
2016/12/31 69 064 +2 817
2016/12/30 66 247 +2 903
2016/12/29 63 344 +1 304
2016/12/28 62 040 +1 605
2016/12/27 60 435 +1 153
2016/12/26 59 282 +1 071
2016/12/25 58 211 +1 662
2016/12/24 56 549 +1 688
2016/12/23 54 861 +999
2016/12/22 53 862 +841
2016/12/21 53 021 -13
2016/12/20 53 034 +689
2016/12/19 52 345 +961
2016/12/18 51 384 +1 862
2016/12/17 49 522 +1 264
2016/12/16 48 258 +182
2016/12/15 48 076 +117
2016/12/14 47 959 -115
2016/12/13 48 074 -379
2016/12/12 48 453 +12
2016/12/11 48 441 +377
2016/12/10 48 064 -24
2016/12/09 48 088 +605
2016/12/08 47 483 -145
2016/12/07 47 628 -701
2016/12/06 48 329 +709
2016/12/05 47 620 +301
2016/12/04 47 319 -742
2016/12/02 48 061 -1 125
2016/12/01 49 186 -1 433
2016/11/30 50 619 -338
2016/11/29 50 957 +189
2016/11/28 50 768 +120
2016/11/27 50 648 -585
2016/11/26 51 233 -963
2016/11/25 52 196 -308
2016/11/24 52 504 -1 747
2016/11/23 54 251

WIDGET FOR YOUR SITE

DOMAINS WITH THE NEAREST RANK

Domain Rank
airnewzealand.com 80 544
rallypoint.com 80 545
ittihadnet.net 80 546
sqlfiddle.com 80 547
x1360.com 80 548
ilce.edu.mx 80 549
clubedalu.com.br 80 550
rackspacecloud.com 80 551
expresstime.gr 80 552
kiblatbola.com 80 553
aaiedu.hr 80 554

DOMAINS WITH THE NEAREST RANK BY TLD .edu.mx

Domain Rank
ilce.edu.mx 80 549
cbachilleres.edu.mx 80 697